| time (UTC) | temp F | wind direction | speed knots | gust knots | rain 1hr in | rain 24hr in | rain mn in | humidity % | barometer mb |
| 20260508060019 | 94 | 73 | 2.6 | 7.0 | 0.00 | 0.00 | 0.00 | 63 | 1008.1 |
| 20260508055509 | 95 | 38 | 2.6 | 6.1 | 0.00 | 0.00 | 0.00 | 61 | 1008.3 |
| 20260508055007 | 94 | 35 | 2.6 | 8.7 | 0.00 | 0.00 | 0.00 | 63 | 1008.3 |
| 20260508054503 | 95 | 321 | 1.7 | 7.0 | 0.00 | 0.00 | 0.00 | 63 | 1008.5 |
| 20260508054000 | 93 | 355 | 1.7 | 3.5 | 0.00 | 0.00 | 0.00 | 63 | 1008.5 |
| 20260508053457 | 93 | 270 | 0.9 | 3.5 | 0.00 | 0.00 | 0.00 | 63 | 1008.6 |
| 20260508052955 | 94 | 57 | 2.6 | 3.5 | 0.00 | 0.00 | 0.00 | 63 | 1008.9 |
| 20260508052452 | 94 | 356 | 0.0 | 0.9 | 0.00 | 0.00 | 0.00 | 62 | 1008.8 |
| 20260508051948 | 93 | 48 | 0.9 | 6.1 | 0.00 | 0.00 | 0.00 | 64 | 1008.8 |
| 20260508051444 | 94 | 351 | 0.9 | 3.5 | 0.00 | 0.00 | 0.00 | 63 | 1009.0 |
| 20260508050940 | 93 | 32 | 0.9 | 5.2 | 0.00 | 0.00 | 0.00 | 63 | 1009.1 |
| 20260508050437 | 94 | 353 | 1.7 | 2.6 | 0.00 | 0.00 | 0.00 | 63 | 1009.0 |
| 20260508045933 | 93 | 303 | 0.9 | 1.7 | 0.00 | 0.00 | 0.00 | 63 | 1009.1 |
| 20260508045430 | 92 | 268 | 3.5 | 3.5 | 0.00 | 0.00 | 0.00 | 64 | 1009.3 |
| 20260508044928 | 93 | 86 | 3.5 | 3.5 | 0.00 | 0.00 | 0.00 | 64 | 1009.3 |
| 20260508044425 | 93 | 323 | 2.6 | 3.5 | 0.00 | 0.00 | 0.00 | 64 | 1009.3 |
| 20260508043925 | 93 | 20 | 0.9 | 5.2 | 0.00 | 0.00 | 0.00 | 65 | 1009.3 |
| 20260508043423 | 92 | 111 | 3.5 | 5.2 | 0.00 | 0.00 | 0.00 | 65 | 1009.4 |
| 20260508042919 | 92 | 143 | 3.5 | 7.0 | 0.00 | 0.00 | 0.00 | 66 | 1009.5 |
| 20260508042418 | 92 | 195 | 0.9 | 7.0 | 0.00 | 0.00 | 0.00 | 66 | 1009.4 |
| 20260508041914 | 92 | 137 | 6.1 | 11.3 | 0.00 | 0.00 | 0.00 | 66 | 1009.6 |
| 20260508041411 | 92 | 359 | 0.0 | 3.5 | 0.00 | 0.00 | 0.00 | 65 | 1009.6 |
| 20260508040907 | 93 | 56 | 4.3 | 5.2 | 0.00 | 0.00 | 0.00 | 64 | 1009.6 |
| 20260508040404 | 92 | 51 | 1.7 | 5.2 | 0.00 | 0.00 | 0.00 | 66 | 1009.8 |
| 20260508035902 | 91 | 65 | 3.5 | 6.1 | 0.00 | 0.00 | 0.00 | 67 | 1009.8 |
| 20260508035359 | 91 | 18 | 2.6 | 7.8 | 0.00 | 0.00 | 0.00 | 67 | 1009.8 |
| 20260508034856 | 91 | 27 | 2.6 | 2.6 | 0.00 | 0.00 | 0.00 | 67 | 1009.9 |
| 20260508034353 | 90 | 61 | 6.1 | 8.7 | 0.00 | 0.00 | 0.00 | 69 | 1010.1 |
| 20260508033850 | 90 | 80 | 3.5 | 5.2 | 0.00 | 0.00 | 0.00 | 68 | 1010.1 |
| 20260508033348 | 91 | 47 | 4.3 | 7.0 | 0.00 | 0.00 | 0.00 | 67 | 1010.0 |
| 20260508032845 | 90 | 135 | 6.1 | 9.6 | 0.00 | 0.00 | 0.00 | 68 | 1010.1 |
| 20260508032343 | 91 | 133 | 1.7 | 6.1 | 0.00 | 0.00 | 0.00 | 68 | 1010.2 |
| 20260508031839 | 90 | 161 | 2.6 | 3.5 | 0.00 | 0.00 | 0.00 | 68 | 1010.4 |
| 20260508031336 | 91 | 46 | 3.5 | 5.2 | 0.00 | 0.00 | 0.00 | 68 | 1010.6 |
| 20260508030832 | 89 | 120 | 2.6 | 5.2 | 0.00 | 0.00 | 0.00 | 69 | 1010.5 |
| 20260508030329 | 90 | 87 | 6.1 | 7.8 | 0.00 | 0.00 | 0.00 | 68 | 1010.5 |
| 20260508025826 | 89 | 100 | 3.5 | 7.8 | 0.00 | 0.00 | 0.00 | 69 | 1010.5 |
| 20260508025323 | 90 | 25 | 0.9 | 3.5 | 0.00 | 0.00 | 0.00 | 68 | 1010.5 |
| 20260508024820 | 89 | 200 | 6.1 | 7.8 | 0.00 | 0.00 | 0.00 | 69 | 1010.6 |
| 20260508024316 | 89 | 102 | 7.0 | 8.7 | 0.00 | 0.00 | 0.00 | 71 | 1010.5 |
| 20260508023813 | 89 | 137 | 5.2 | 8.7 | 0.00 | 0.00 | 0.00 | 69 | 1010.7 |
| 20260508023310 | 89 | 90 | 7.0 | 9.6 | 0.00 | 0.00 | 0.00 | 70 | 1010.8 |
| 20260508022807 | 89 | 90 | 1.7 | 8.7 | 0.00 | 0.00 | 0.00 | 70 | 1010.7 |
| 20260508022306 | 90 | 90 | 6.1 | 9.6 | 0.00 | 0.00 | 0.00 | 67 | 1010.5 |
| 20260508021800 | 89 | 344 | 0.9 | 7.8 | 0.00 | 0.00 | 0.00 | 69 | 1010.5 |
| 20260508021255 | 89 | 123 | 1.7 | 3.5 | 0.00 | 0.00 | 0.00 | 70 | 1010.4 |
| 20260508020752 | 88 | 76 | 0.9 | 5.2 | 0.00 | 0.00 | 0.00 | 71 | 1010.6 |
| 20260508020250 | 88 | 94 | 3.5 | 7.8 | 0.00 | 0.00 | 0.00 | 72 | 1010.5 |
| 20260508015746 | 88 | 35 | 1.7 | 7.0 | 0.00 | 0.00 | 0.00 | 71 | 1010.5 |
| 20260508015244 | 87 | 104 | 7.0 | 7.8 | 0.00 | 0.00 | 0.00 | 72 | 1010.5 |
| 20260508014741 | 88 | 139 | 2.6 | 7.0 | 0.00 | 0.00 | 0.00 | 72 | 1010.7 |
| 20260508014237 | 87 | 100 | 4.3 | 6.1 | 0.00 | 0.00 | 0.00 | 73 | 1010.6 |
| 20260508013733 | 87 | 45 | 3.5 | 7.8 | 0.00 | 0.00 | 0.00 | 75 | 1010.5 |
| 20260508013230 | 87 | 21 | 4.3 | 7.0 | 0.00 | 0.00 | 0.00 | 74 | 1010.4 |
| 20260508012728 | 86 | 52 | 4.3 | 7.0 | 0.00 | 0.00 | 0.00 | 75 | 1010.5 |
| 20260508012224 | 86 | 90 | 3.5 | 6.1 | 0.00 | 0.00 | 0.00 | 76 | 1010.3 |
| 20260508011722 | 87 | 104 | 4.3 | 7.0 | 0.00 | 0.00 | 0.00 | 76 | 1010.2 |
| 20260508011220 | 87 | 68 | 1.7 | 5.2 | 0.00 | 0.00 | 0.00 | 76 | 1010.4 |
| 20260508010716 | 87 | 138 | 1.7 | 5.2 | 0.00 | 0.00 | 0.00 | 75 | 1010.2 |
| 20260508010214 | 86 | 204 | 3.5 | 9.6 | 0.00 | 0.00 | 0.00 | 76 | 1010.3 |
| 20260508005711 | 87 | 0 | 1.7 | 3.5 | 0.00 | 0.00 | 0.00 | 75 | 1010.2 |
| 20260508005208 | 86 | 102 | 2.6 | 6.1 | 0.00 | 0.00 | 0.00 | 77 | 1010.2 |
| 20260508004703 | 86 | 132 | 5.2 | 7.8 | 0.00 | 0.00 | 0.00 | 77 | 1009.9 |
| 20260508004200 | 86 | 68 | 3.5 | 7.0 | 0.00 | 0.00 | 0.00 | 76 | 1010.1 |
| 20260508003657 | 86 | 116 | 1.7 | 6.1 | 0.00 | 0.00 | 0.00 | 77 | 1010.1 |
| 20260508003154 | 86 | 58 | 0.0 | 3.5 | 0.00 | 0.00 | 0.00 | 77 | 1010.0 |
| 20260508002650 | 85 | 42 | 0.9 | 6.1 | 0.00 | 0.00 | 0.00 | 77 | 1009.9 |
| 20260508002148 | 86 | 150 | 5.2 | 7.0 | 0.00 | 0.00 | 0.00 | 77 | 1010.0 |
| 20260508001643 | 85 | 114 | 5.2 | 9.6 | 0.00 | 0.00 | 0.00 | 77 | 1009.8 |
| 20260508001139 | 84 | 64 | 3.5 | 5.2 | 0.00 | 0.00 | 0.00 | 78 | 1010.0 |
| 20260508000635 | 85 | 82 | 0.9 | 3.5 | 0.00 | 0.00 | 0.00 | 81 | 1009.5 |
| 20260508000133 | 84 | 45 | 1.7 | 5.2 | 0.00 | 0.00 | 0.00 | 81 | 1009.6 |
| 20260507235630 | 84 | 161 | 2.6 | 6.1 | 0.00 | 0.00 | 0.00 | 83 | 1009.4 |
| 20260507235127 | 84 | 152 | 5.2 | 9.6 | 0.00 | 0.00 | 0.00 | 83 | 1009.6 |
| 20260507234623 | 84 | 67 | 5.2 | 7.0 | 0.00 | 0.00 | 0.00 | 83 | 1009.5 |
| 20260507234120 | 84 | 65 | 1.7 | 5.2 | 0.00 | 0.00 | 0.00 | 84 | 1009.5 |
| 20260507233617 | 84 | 85 | 6.1 | 7.0 | 0.00 | 0.00 | 0.00 | 84 | 1009.5 |
| 20260507233116 | 84 | 103 | 7.8 | 9.6 | 0.00 | 0.00 | 0.00 | 84 | 1009.3 |
| 20260507232612 | 84 | 124 | 7.8 | 9.6 | 0.00 | 0.00 | 0.00 | 84 | 1009.2 |
| 20260507232109 | 84 | 91 | 4.3 | 6.1 | 0.00 | 0.00 | 0.00 | 84 | 1009.3 |
| 20260507231605 | 84 | 119 | 1.7 | 6.1 | 0.00 | 0.00 | 0.00 | 84 | 1009.2 |
| 20260507231102 | 84 | 89 | 2.6 | 3.5 | 0.00 | 0.00 | 0.00 | 84 | 1009.1 |
| 20260507230559 | 84 | 142 | 0.9 | 6.1 | 0.00 | 0.00 | 0.00 | 84 | 1009.0 |
| 20260507230055 | 84 | 120 | 3.5 | 6.1 | 0.00 | 0.00 | 0.00 | 84 | 1009.1 |
| 20260507225550 | 84 | 150 | 2.6 | 6.1 | 0.00 | 0.00 | 0.00 | 84 | 1009.0 |
| 20260507225047 | 84 | 100 | 3.5 | 6.1 | 0.00 | 0.00 | 0.00 | 84 | 1009.0 |
| 20260507224543 | 83 | 105 | 2.6 | 6.1 | 0.00 | 0.00 | 0.00 | 84 | 1008.7 |
| 20260507224040 | 83 | 75 | 1.7 | 5.2 | 0.00 | 0.00 | 0.00 | 84 | 1008.7 |
| 20260507223536 | 83 | 135 | 1.7 | 2.6 | 0.00 | 0.00 | 0.00 | 84 | 1008.7 |
| 20260507223033 | 83 | 126 | 3.5 | 5.2 | 0.00 | 0.00 | 0.00 | 84 | 1008.8 |
| 20260507222530 | 83 | 97 | 2.6 | 3.5 | 0.00 | 0.00 | 0.00 | 84 | 1008.9 |
| 20260507222026 | 83 | 117 | 3.5 | 5.2 | 0.00 | 0.00 | 0.00 | 85 | 1008.9 |
| 20260507221523 | 83 | 75 | 0.9 | 1.7 | 0.00 | 0.00 | 0.00 | 85 | 1008.9 |
| 20260507221020 | 83 | 105 | 3.5 | 3.5 | 0.00 | 0.00 | 0.00 | 85 | 1008.9 |
| 20260507220517 | 83 | 69 | 4.3 | 8.7 | 0.00 | 0.00 | 0.00 | 85 | 1008.8 |
| 20260507220015 | 83 | 107 | 5.2 | 7.0 | 0.00 | 0.00 | 0.00 | 85 | 1008.7 |
| 20260507215510 | 83 | 90 | 3.5 | 8.7 | 0.00 | 0.00 | 0.00 | 84 | 1008.9 |
| 20260507215009 | 84 | 106 | 1.7 | 7.8 | 0.00 | 0.00 | 0.00 | 84 | 1008.8 |
| 20260507214505 | 84 | 120 | 3.5 | 3.5 | 0.00 | 0.00 | 0.00 | 84 | 1008.8 |
| 20260507214000 | 84 | 110 | 2.6 | 6.1 | 0.00 | 0.00 | 0.00 | 84 | 1008.9 |
| 20260507213458 | 84 | 125 | 4.3 | 7.0 | 0.00 | 0.00 | 0.00 | 84 | 1008.8 |
| 20260507212954 | 84 | 71 | 2.6 | 3.5 | 0.00 | 0.00 | 0.00 | 84 | 1008.8 |
| 20260507212450 | 84 | 29 | 0.0 | 3.5 | 0.00 | 0.00 | 0.00 | 84 | 1008.6 |
| 20260507211948 | 84 | 95 | 4.3 | 7.0 | 0.00 | 0.00 | 0.00 | 84 | 1008.7 |
| 20260507211444 | 84 | 50 | 0.9 | 5.2 | 0.00 | 0.00 | 0.00 | 84 | 1008.7 |
| 20260507210941 | 84 | 94 | 1.7 | 5.2 | 0.00 | 0.00 | 0.00 | 84 | 1008.7 |
| 20260507210438 | 84 | 118 | 3.5 | 5.2 | 0.00 | 0.00 | 0.00 | 84 | 1008.7 |
| 20260507205934 | 84 | 105 | 4.3 | 5.2 | 0.00 | 0.00 | 0.00 | 84 | 1008.6 |
| 20260507205432 | 84 | 102 | 0.0 | 3.5 | 0.00 | 0.00 | 0.00 | 84 | 1008.6 |
| 20260507204928 | 84 | 27 | 0.0 | 2.6 | 0.00 | 0.00 | 0.00 | 84 | 1008.4 |
| 20260507204424 | 84 | 32 | 0.9 | 2.6 | 0.00 | 0.00 | 0.00 | 84 | 1008.6 |
| 20260507203922 | 84 | 74 | 3.5 | 3.5 | 0.00 | 0.00 | 0.00 | 84 | 1008.4 |
| 20260507203420 | 84 | 21 | 0.0 | 1.7 | 0.00 | 0.00 | 0.00 | 84 | 1008.3 |
| 20260507202915 | 84 | 31 | 2.6 | 3.5 | 0.00 | 0.00 | 0.00 | 84 | 1008.3 |
| 20260507202413 | 84 | 134 | 1.7 | 6.1 | 0.00 | 0.00 | 0.00 | 84 | 1008.1 |
| 20260507201908 | 84 | 48 | 1.7 | 5.2 | 0.00 | 0.00 | 0.00 | 84 | 1008.1 |
| 20260507201403 | 84 | 45 | 1.7 | 3.5 | 0.00 | 0.00 | 0.00 | 84 | 1008.2 |
| 20260507200900 | 84 | 96 | 0.9 | 2.6 | 0.00 | 0.00 | 0.00 | 84 | 1007.8 |
| 20260507200356 | 84 | 67 | 0.9 | 3.5 | 0.00 | 0.00 | 0.00 | 84 | 1007.8 |
| 20260507195852 | 84 | 78 | 5.2 | 7.8 | 0.00 | 0.00 | 0.00 | 85 | 1007.7 |
| 20260507195350 | 84 | 72 | 3.5 | 7.0 | 0.00 | 0.00 | 0.00 | 84 | 1008.0 |
| 20260507194847 | 84 | 63 | 3.5 | 6.1 | 0.00 | 0.00 | 0.00 | 84 | 1008.0 |
| 20260507194343 | 84 | 85 | 2.6 | 3.5 | 0.00 | 0.00 | 0.00 | 84 | 1008.0 |
| 20260507193839 | 84 | 92 | 3.5 | 6.1 | 0.00 | 0.00 | 0.00 | 84 | 1008.0 |
| 20260507193337 | 84 | 186 | 2.6 | 3.5 | 0.00 | 0.00 | 0.00 | 83 | 1007.9 |
| 20260507192833 | 84 | 76 | 5.2 | 7.0 | 0.00 | 0.00 | 0.00 | 83 | 1008.2 |
| 20260507192324 | 84 | 62 | 3.5 | 6.1 | 0.00 | 0.00 | 0.00 | 83 | 1007.8 |
| 20260507191820 | 84 | 154 | 3.5 | 5.2 | 0.00 | 0.00 | 0.00 | 83 | 1008.0 |
| 20260507191317 | 84 | 130 | 1.7 | 5.2 | 0.00 | 0.00 | 0.00 | 83 | 1008.1 |
| 20260507190814 | 84 | 89 | 3.5 | 5.2 | 0.00 | 0.00 | 0.00 | 83 | 1008.1 |
| 20260507190312 | 84 | 85 | 1.7 | 5.2 | 0.00 | 0.00 | 0.00 | 83 | 1008.2 |
| 20260507185810 | 84 | 102 | 2.6 | 7.8 | 0.00 | 0.00 | 0.00 | 83 | 1008.1 |
| 20260507185306 | 85 | 114 | 5.2 | 6.1 | 0.00 | 0.00 | 0.00 | 83 | 1008.1 |
| 20260507184804 | 84 | 53 | 3.5 | 7.0 | 0.00 | 0.00 | 0.00 | 83 | 1008.5 |
| 20260507184303 | 84 | 197 | 2.6 | 6.1 | 0.00 | 0.00 | 0.00 | 83 | 1008.4 |
| 20260507183759 | 85 | 97 | 6.1 | 7.0 | 0.00 | 0.00 | 0.00 | 83 | 1008.7 |
| 20260507183256 | 85 | 128 | 5.2 | 6.1 | 0.00 | 0.00 | 0.00 | 83 | 1008.7 |
| 20260507182754 | 85 | 99 | 1.7 | 5.2 | 0.00 | 0.00 | 0.00 | 83 | 1008.8 |
| 20260507182253 | 85 | 72 | 6.1 | 7.0 | 0.00 | 0.00 | 0.00 | 83 | 1008.8 |
| 20260507181751 | 84 | 82 | 1.7 | 3.5 | 0.00 | 0.00 | 0.00 | 83 | 1008.6 |
| 20260507181247 | 85 | 75 | 2.6 | 7.8 | 0.00 | 0.00 | 0.00 | 83 | 1008.7 |
| 20260507180743 | 84 | 55 | 0.9 | 3.5 | 0.00 | 0.00 | 0.00 | 83 | 1008.9 |
| 20260507180241 | 85 | 51 | 2.6 | 6.1 | 0.00 | 0.00 | 0.00 | 83 | 1008.9 |
| 20260507175736 | 85 | 133 | 7.0 | 7.8 | 0.00 | 0.00 | 0.00 | 82 | 1008.7 |
| 20260507175233 | 85 | 161 | 3.5 | 7.8 | 0.00 | 0.00 | 0.00 | 82 | 1008.8 |
| 20260507174731 | 85 | 135 | 3.5 | 8.7 | 0.00 | 0.00 | 0.00 | 82 | 1008.8 |
| 20260507174228 | 85 | 118 | 3.5 | 7.0 | 0.00 | 0.00 | 0.00 | 82 | 1008.8 |
| 20260507173726 | 85 | 96 | 3.5 | 6.1 | 0.00 | 0.00 | 0.00 | 82 | 1008.9 |
| 20260507173222 | 85 | 96 | 2.6 | 5.2 | 0.00 | 0.00 | 0.00 | 82 | 1009.0 |
| 20260507172719 | 85 | 124 | 4.3 | 7.8 | 0.00 | 0.00 | 0.00 | 82 | 1009.1 |
| 20260507172216 | 85 | 117 | 1.7 | 2.6 | 0.00 | 0.00 | 0.00 | 82 | 1009.0 |
| 20260507171711 | 85 | 115 | 0.9 | 5.2 | 0.00 | 0.00 | 0.00 | 82 | 1009.2 |
| 20260507171208 | 85 | 77 | 1.7 | 2.6 | 0.00 | 0.00 | 0.00 | 82 | 1009.1 |
| 20260507170704 | 85 | 94 | 2.6 | 8.7 | 0.00 | 0.00 | 0.00 | 82 | 1009.2 |
| 20260507170202 | 85 | 80 | 5.2 | 7.8 | 0.00 | 0.00 | 0.00 | 82 | 1009.1 |
| 20260507165657 | 85 | 44 | 1.7 | 5.2 | 0.00 | 0.00 | 0.00 | 82 | 1009.4 |
| 20260507165148 | 85 | 106 | 4.3 | 7.0 | 0.00 | 0.00 | 0.00 | 81 | 1009.3 |
| 20260507164644 | 85 | 70 | 5.2 | 7.8 | 0.00 | 0.00 | 0.00 | 82 | 1009.4 |
| 20260507164141 | 85 | 90 | 4.3 | 5.2 | 0.00 | 0.00 | 0.00 | 82 | 1009.5 |
| 20260507163633 | 85 | 87 | 7.0 | 8.7 | 0.00 | 0.00 | 0.00 | 82 | 1009.5 |
| 20260507163131 | 85 | 57 | 5.2 | 7.8 | 0.00 | 0.00 | 0.00 | 83 | 1009.5 |
| 20260507162626 | 85 | 85 | 6.1 | 8.7 | 0.00 | 0.00 | 0.00 | 83 | 1009.5 |
| 20260507162123 | 85 | 90 | 3.5 | 5.2 | 0.00 | 0.00 | 0.00 | 82 | 1009.4 |
| 20260507161619 | 85 | 96 | 2.6 | 7.8 | 0.00 | 0.00 | 0.00 | 82 | 1009.7 |
| 20260507161116 | 85 | 75 | 3.5 | 7.8 | 0.00 | 0.00 | 0.00 | 82 | 1009.4 |
| 20260507160612 | 85 | 91 | 6.1 | 7.8 | 0.00 | 0.00 | 0.00 | 83 | 1009.5 |
| 20260507160109 | 85 | 128 | 4.3 | 7.0 | 0.00 | 0.00 | 0.00 | 83 | 1009.8 |
| 20260507155603 | 85 | 174 | 1.7 | 7.8 | 0.00 | 0.00 | 0.00 | 83 | 1009.7 |
| 20260507155055 | 86 | 77 | 7.8 | 8.7 | 0.00 | 0.00 | 0.00 | 83 | 1009.7 |
| 20260507154552 | 85 | 100 | 4.3 | 7.0 | 0.00 | 0.00 | 0.00 | 83 | 1009.6 |
| 20260507154049 | 85 | 121 | 4.3 | 7.0 | 0.00 | 0.00 | 0.00 | 83 | 1009.7 |
| 20260507153546 | 85 | 99 | 1.7 | 7.0 | 0.00 | 0.00 | 0.00 | 82 | 1009.7 |
| 20260507153042 | 85 | 69 | 5.2 | 7.8 | 0.00 | 0.00 | 0.00 | 82 | 1009.5 |
| 20260507152538 | 85 | 93 | 2.6 | 5.2 | 0.00 | 0.00 | 0.00 | 82 | 1009.3 |
| 20260507152035 | 85 | 114 | 3.5 | 6.1 | 0.00 | 0.00 | 0.00 | 82 | 1009.3 |
| 20260507151530 | 86 | 116 | 2.6 | 8.7 | 0.00 | 0.00 | 0.00 | 82 | 1009.3 |
| 20260507151027 | 86 | 127 | 5.2 | 7.0 | 0.00 | 0.00 | 0.00 | 82 | 1009.2 |
| 20260507150525 | 86 | 140 | 6.1 | 7.8 | 0.00 | 0.00 | 0.00 | 82 | 1009.5 |
| 20260507150021 | 85 | 116 | 4.3 | 6.1 | 0.00 | 0.00 | 0.00 | 82 | 1009.2 |
| 20260507145516 | 86 | 85 | 7.8 | 9.6 | 0.00 | 0.00 | 0.00 | 82 | 1009.2 |
| 20260507145015 | 86 | 47 | 1.7 | 7.0 | 0.00 | 0.00 | 0.00 | 81 | 1009.1 |
| 20260507144511 | 86 | 89 | 6.1 | 7.8 | 0.00 | 0.00 | 0.00 | 81 | 1008.9 |
| 20260507144008 | 86 | 102 | 6.1 | 7.8 | 0.00 | 0.00 | 0.00 | 81 | 1009.1 |
| 20260507143506 | 86 | 75 | 2.6 | 5.2 | 0.00 | 0.00 | 0.00 | 81 | 1008.9 |
| 20260507143003 | 86 | 99 | 3.5 | 7.8 | 0.00 | 0.00 | 0.00 | 81 | 1009.1 |
| 20260507142458 | 86 | 67 | 4.3 | 9.6 | 0.00 | 0.00 | 0.00 | 81 | 1008.7 |
| 20260507141955 | 86 | 72 | 7.0 | 9.6 | 0.00 | 0.00 | 0.00 | 80 | 1008.7 |
| 20260507141450 | 86 | 81 | 2.6 | 8.7 | 0.00 | 0.00 | 0.00 | 80 | 1008.8 |
| 20260507140947 | 86 | 91 | 3.5 | 7.0 | 0.00 | 0.00 | 0.00 | 80 | 1008.7 |
| 20260507140444 | 86 | 107 | 4.3 | 7.8 | 0.00 | 0.00 | 0.00 | 79 | 1008.6 |
| 20260507135941 | 86 | 145 | 1.7 | 3.5 | 0.00 | 0.00 | 0.00 | 79 | 1008.5 |
| 20260507135433 | 86 | 113 | 5.2 | 8.7 | 0.00 | 0.00 | 0.00 | 79 | 1008.3 |
| 20260507134930 | 86 | 72 | 2.6 | 8.7 | 0.00 | 0.00 | 0.00 | 79 | 1008.1 |
| 20260507134426 | 86 | 134 | 1.7 | 8.7 | 0.00 | 0.00 | 0.00 | 79 | 1008.3 |
| 20260507133922 | 86 | 111 | 7.0 | 9.6 | 0.00 | 0.00 | 0.00 | 79 | 1008.2 |
| 20260507133418 | 86 | 98 | 7.8 | 11.3 | 0.00 | 0.00 | 0.00 | 79 | 1008.0 |
| 20260507132911 | 86 | 158 | 5.2 | 13.0 | 0.00 | 0.00 | 0.00 | 79 | 1008.0 |
| 20260507132407 | 86 | 109 | 2.6 | 5.2 | 0.00 | 0.00 | 0.00 | 79 | 1008.0 |
| 20260507131905 | 86 | 96 | 4.3 | 8.7 | 0.00 | 0.00 | 0.00 | 79 | 1007.9 |
| 20260507131401 | 86 | 131 | 7.8 | 12.2 | 0.00 | 0.00 | 0.00 | 79 | 1007.9 |
| 20260507130858 | 86 | 116 | 7.8 | 11.3 | 0.00 | 0.00 | 0.00 | 79 | 1007.8 |
| 20260507130354 | 86 | 79 | 7.8 | 18.2 | 0.00 | 0.00 | 0.00 | 79 | 1007.5 |
| 20260507125853 | 86 | 68 | 5.2 | 13.9 | 0.00 | 0.00 | 0.00 | 79 | 1007.7 |
| 20260507125350 | 86 | 119 | 7.0 | 7.8 | 0.00 | 0.00 | 0.00 | 79 | 1007.6 |
| 20260507124848 | 86 | 144 | 7.8 | 11.3 | 0.00 | 0.00 | 0.00 | 79 | 1007.6 |
| 20260507124344 | 86 | 112 | 8.7 | 12.2 | 0.00 | 0.00 | 0.00 | 79 | 1007.6 |
| 20260507123843 | 87 | 72 | 5.2 | 9.6 | 0.00 | 0.00 | 0.00 | 78 | 1007.4 |
| 20260507123339 | 87 | 105 | 5.2 | 13.9 | 0.00 | 0.00 | 0.00 | 78 | 1007.3 |
| 20260507122836 | 87 | 108 | 9.6 | 14.8 | 0.00 | 0.00 | 0.00 | 78 | 1007.4 |
| 20260507122331 | 87 | 123 | 4.3 | 12.2 | 0.00 | 0.00 | 0.00 | 78 | 1007.3 |
| 20260507121828 | 87 | 180 | 9.6 | 12.2 | 0.00 | 0.00 | 0.00 | 77 | 1007.2 |
| 20260507121323 | 87 | 159 | 7.8 | 13.0 | 0.00 | 0.00 | 0.00 | 76 | 1007.0 |
| 20260507120820 | 87 | 146 | 12.2 | 15.6 | 0.00 | 0.00 | 0.00 | 75 | 1007.1 |
| 20260507120316 | 87 | 116 | 9.6 | 13.0 | 0.00 | 0.00 | 0.00 | 74 | 1007.0 |
| 20260507115812 | 87 | 144 | 7.8 | 14.8 | 0.00 | 0.00 | 0.00 | 74 | 1006.8 |
| 20260507115308 | 87 | 123 | 7.0 | 9.6 | 0.00 | 0.00 | 0.00 | 75 | 1006.7 |
| 20260507114804 | 88 | 127 | 4.3 | 6.1 | 0.00 | 0.00 | 0.00 | 75 | 1006.6 |
| 20260507114302 | 88 | 127 | 4.3 | 9.6 | 0.00 | 0.00 | 0.00 | 76 | 1006.6 |
| 20260507113800 | 87 | 137 | 5.2 | 11.3 | 0.00 | 0.00 | 0.00 | 76 | 1006.6 |
| 20260507113256 | 88 | 125 | 7.8 | 12.2 | 0.00 | 0.00 | 0.00 | 76 | 1006.5 |
| 20260507112754 | 87 | 150 | 6.1 | 13.0 | 0.00 | 0.00 | 0.00 | 76 | 1006.7 |
| 20260507112250 | 88 | 82 | 8.7 | 14.8 | 0.00 | 0.00 | 0.00 | 75 | 1006.6 |
| 20260507111748 | 88 | 126 | 5.2 | 13.0 | 0.00 | 0.00 | 0.00 | 74 | 1006.3 |
| 20260507111239 | 88 | 149 | 8.7 | 13.9 | 0.00 | 0.00 | 0.00 | 73 | 1006.2 |
| 20260507110735 | 89 | 108 | 11.3 | 13.9 | 0.00 | 0.00 | 0.00 | 72 | 1006.4 |
| 20260507110232 | 89 | 128 | 2.6 | 3.5 | 0.00 | 0.00 | 0.00 | 71 | 1006.1 |
| 20260507105729 | 89 | 129 | 7.0 | 7.8 | 0.00 | 0.00 | 0.00 | 71 | 1006.0 |
| 20260507105225 | 90 | 141 | 5.2 | 11.3 | 0.00 | 0.00 | 0.00 | 70 | 1005.8 |
| 20260507104722 | 90 | 151 | 3.5 | 11.3 | 0.00 | 0.00 | 0.00 | 69 | 1005.7 |
| 20260507104219 | 91 | 138 | 4.3 | 7.8 | 0.00 | 0.00 | 0.00 | 66 | 1005.8 |
| 20260507103714 | 91 | 98 | 4.3 | 6.1 | 0.00 | 0.00 | 0.00 | 64 | 1005.8 |
| 20260507103211 | 90 | 133 | 7.0 | 13.0 | 0.00 | 0.00 | 0.00 | 64 | 1005.5 |
| 20260507102707 | 91 | 129 | 10.4 | 14.8 | 0.00 | 0.00 | 0.00 | 65 | 1005.7 |
| 20260507102203 | 91 | 132 | 3.5 | 12.2 | 0.00 | 0.00 | 0.00 | 65 | 1005.6 |
| 20260507101700 | 91 | 134 | 4.3 | 9.6 | 0.00 | 0.00 | 0.00 | 65 | 1005.4 |
| 20260507101155 | 91 | 85 | 9.6 | 13.0 | 0.00 | 0.00 | 0.00 | 65 | 1005.2 |
| 20260507100653 | 92 | 143 | 8.7 | 13.0 | 0.00 | 0.00 | 0.00 | 65 | 1005.4 |
| 20260507100152 | 92 | 118 | 3.5 | 8.7 | 0.00 | 0.00 | 0.00 | 65 | 1005.2 |
| 20260507095649 | 92 | 120 | 5.2 | 7.0 | 0.00 | 0.00 | 0.00 | 66 | 1004.9 |
| 20260507095146 | 92 | 120 | 3.5 | 13.0 | 0.00 | 0.00 | 0.00 | 66 | 1005.1 |
| 20260507094642 | 92 | 115 | 8.7 | 12.2 | 0.00 | 0.00 | 0.00 | 66 | 1005.3 |
| 20260507094139 | 92 | 123 | 7.0 | 12.2 | 0.00 | 0.00 | 0.00 | 66 | 1004.9 |
| 20260507093636 | 92 | 104 | 8.7 | 9.6 | 0.00 | 0.00 | 0.00 | 65 | 1005.1 |
| 20260507093135 | 92 | 157 | 3.5 | 12.2 | 0.00 | 0.00 | 0.00 | 65 | 1005.0 |
| 20260507092631 | 92 | 164 | 8.7 | 11.3 | 0.00 | 0.00 | 0.00 | 65 | 1005.0 |
| 20260507092128 | 93 | 175 | 7.0 | 11.3 | 0.00 | 0.00 | 0.00 | 65 | 1005.1 |
| 20260507091624 | 93 | 99 | 7.8 | 9.6 | 0.00 | 0.00 | 0.00 | 65 | 1005.0 |
| 20260507091120 | 93 | 150 | 9.6 | 12.2 | 0.00 | 0.00 | 0.00 | 65 | 1005.2 |
| 20260507090616 | 93 | 169 | 9.6 | 12.2 | 0.00 | 0.00 | 0.00 | 64 | 1005.0 |
| 20260507090114 | 93 | 90 | 3.5 | 8.7 | 0.00 | 0.00 | 0.00 | 64 | 1005.1 |
| 20260507085610 | 93 | 137 | 5.2 | 7.0 | 0.00 | 0.00 | 0.00 | 63 | 1005.1 |
| 20260507085106 | 94 | 131 | 5.2 | 9.6 | 0.00 | 0.00 | 0.00 | 62 | 1005.1 |
| 20260507084603 | 94 | 216 | 5.2 | 7.0 | 0.00 | 0.00 | 0.00 | 62 | 1005.1 |
| 20260507084100 | 94 | 95 | 0.9 | 9.6 | 0.00 | 0.00 | 0.00 | 62 | 1005.2 |
| 20260507083556 | 94 | 163 | 3.5 | 8.7 | 0.00 | 0.00 | 0.00 | 62 | 1005.1 |
| 20260507083054 | 95 | 133 | 6.1 | 9.6 | 0.00 | 0.00 | 0.00 | 61 | 1005.0 |
| 20260507082549 | 95 | 154 | 4.3 | 6.1 | 0.00 | 0.00 | 0.00 | 61 | 1005.2 |
| 20260507082046 | 94 | 124 | 8.7 | 9.6 | 0.00 | 0.00 | 0.00 | 62 | 1005.1 |
| 20260507081542 | 94 | 95 | 5.2 | 7.0 | 0.00 | 0.00 | 0.00 | 61 | 1005.1 |
| 20260507081040 | 94 | 134 | 4.3 | 12.2 | 0.00 | 0.00 | 0.00 | 61 | 1005.3 |
| 20260507080535 | 95 | 53 | 7.0 | 11.3 | 0.00 | 0.00 | 0.00 | 61 | 1005.2 |
| 20260507080032 | 94 | 107 | 4.3 | 11.3 | 0.00 | 0.00 | 0.00 | 61 | 1005.3 |
| 20260507075527 | 94 | 139 | 2.6 | 6.1 | 0.00 | 0.00 | 0.00 | 62 | 1005.4 |
| 20260507075024 | 94 | 98 | 7.0 | 12.2 | 0.00 | 0.00 | 0.00 | 62 | 1005.3 |
| 20260507074520 | 95 | 117 | 3.5 | 9.6 | 0.00 | 0.00 | 0.00 | 61 | 1005.3 |
| 20260507074019 | 94 | 96 | 1.7 | 6.1 | 0.00 | 0.00 | 0.00 | 62 | 1005.3 |
| 20260507073515 | 94 | 121 | 7.8 | 9.6 | 0.00 | 0.00 | 0.00 | 61 | 1005.4 |
| 20260507073012 | 94 | 134 | 7.8 | 9.6 | 0.00 | 0.00 | 0.00 | 61 | 1005.5 |
| 20260507072509 | 95 | 139 | 8.7 | 11.3 | 0.00 | 0.00 | 0.00 | 61 | 1005.6 |
| 20260507072006 | 95 | 147 | 3.5 | 5.2 | 0.00 | 0.00 | 0.00 | 60 | 1005.5 |
| 20260507071504 | 94 | 120 | 3.5 | 8.7 | 0.00 | 0.00 | 0.00 | 61 | 1005.8 |
| 20260507071000 | 94 | 139 | 3.5 | 8.7 | 0.00 | 0.00 | 0.00 | 62 | 1006.0 |
| 20260507070457 | 95 | 110 | 6.1 | 8.7 | 0.00 | 0.00 | 0.00 | 61 | 1005.8 |
| 20260507065954 | 94 | 118 | 4.3 | 7.8 | 0.00 | 0.00 | 0.00 | 61 | 1006.1 |
| 20260507065451 | 94 | 69 | 5.2 | 7.8 | 0.00 | 0.00 | 0.00 | 61 | 1005.9 |
| 20260507064948 | 95 | 157 | 7.8 | 13.0 | 0.00 | 0.00 | 0.00 | 60 | 1006.0 |
| 20260507064446 | 97 | 129 | 6.1 | 7.8 | 0.00 | 0.00 | 0.00 | 58 | 1006.4 |
| 20260507063944 | 97 | 323 | 0.0 | 1.7 | 0.00 | 0.00 | 0.00 | 56 | 1006.3 |
| 20260507063440 | 95 | 218 | 1.7 | 5.2 | 0.00 | 0.00 | 0.00 | 58 | 1006.3 |
| 20260507062937 | 96 | 94 | 7.8 | 11.3 | 0.00 | 0.00 | 0.00 | 58 | 1006.7 |
| 20260507062435 | 95 | 53 | 1.7 | 8.7 | 0.00 | 0.00 | 0.00 | 60 | 1006.8 |
| 20260507061932 | 96 | 132 | 5.2 | 9.6 | 0.00 | 0.00 | 0.00 | 60 | 1006.7 |
| 20260507061430 | 95 | 358 | 1.7 | 3.5 | 0.00 | 0.00 | 0.00 | 59 | 1006.9 |
| 20260507060928 | 95 | 93 | 5.2 | 7.8 | 0.00 | 0.00 | 0.00 | 60 | 1007.2 |